Find Starlink 4515

NORAD ID: 53397 Int'l Des: 2022-097 Owner: SPXS Country: US Constellation: starlink operational
LEOCIRCULAR

Live Position

Loading 3D Globe...

About Starlink 4515

Description loading...

Upcoming Passes

Passes for default location (London). Set your location on the main map for personalized predictions.

Altitude History

Loading altitude history...

Two-Line Element Set

1 53397U 22097K 26120.62988468 .00000334 00000-0 39068-4 0 9999
2 53397 53.2182 250.9506 0001458 83.3278 276.7880 15.08840171206355
Epoch: Apr 30, 2026 • Age: 19 hours

Current Status

Altitude 542.8 km
Velocity 7.60 km/s
Sub-Earth Point 41.45°N, 87.58°W
Launch Date Aug 10, 2022
Age 3.7 years
Type internet

Technical Details

Classification Payload
Mass 297.00 kg
Dry Mass 275.00 kg
Total Mass 297.00 kg
Length 0.20 m
Diameter 2.80 m
Span 9.00 m
Shape Box + pan
Manufacturer SPXS
Bus Type Starlink
Phase Status In Orbit
Owner/State SPXS/US

Most Searched